[[{"header":{"parameterUnit":"m.s-1","parameterCategory":1,"la1":30.2991,"la2":30.254,"lo1":-89.0895,"lo2":-89.0444,"dy":0.0017,"dx":0.0017,"nx":28,"ny":28,"refTime":"2025-05-28T09:00:00:Z","depth":0,"parameterNumber":2,"parameterNumberName":"U-component_of_WINDS"},"data":[0,0,0,0,0,0,0,0,0,0,0,0,0,0,0,0,0,0,0,0,0,0,0,0,0,0,0,0,0,0,0,0,0,0,0,0,0,0,0,0,0,0,0,0,0,0,0,0,0,0,0,0,0,0,0,0,0,0,1.0381,1.0381,0,1.0384,1.0384,1.0384,1.0374,1.0374,1.0373,1.0373,1.0376,1.0376,1.0377,0,0,0,0,0,0,0,0,0,0,0,0,0,1.0364,1.0364,1.0381,1.0381,1.0381,1.0384,1.0384,1.0384,1.0374,1.0374,1.0373,1.0373,1.0376,1.0376,1.0377,0,0,0,0,0,0,0,0,0,0,0,0,0,1.037,1.0364,1.0381,1.0376,1.0376,1.0384,1.0384,1.0384,1.0374,1.0374,1.0373,1.0373,1.0376,1.0376,1.0377,1.039,0,0,1.0379,1.0379,0,0,0,0,0,0,0,0,1.0369,1.037,1.0377,1.0376,1.0376,1.0378,1.038,1.0386,1.0374,1.0375,1.0373,1.0372,1.0377,1.0378,1.0379,1.039,1.039,1.0379,1.0379,1.0379,1.0379,0,0,0,0,0,0,0,1.0369,1.037,1.0382,1.0377,1.0376,1.0373,1.0374,1.0381,1.0379,1.0375,1.0374,1.0374,1.0377,1.0379,1.0379,1.039,1.0379,1.0379,1.038,1.038,1.0411,1.0412,0,0,0,0,0,0,1.0369,1.037,1.0382,1.0382,1.0371,1.0374,1.0374,1.0378,1.0378,1.0378,1.0375,1.0374,1.0378,1.0379,1.0379,1.0394,1.0379,1.038,1.038,1.0411,1.0411,1.0412,0,0,0,0,0,0,1.0369,1.037,1.0382,1.0376,1.0377,1.0375,1.0379,1.0378,1.038,1.0379,1.0378,1.0377,1.0378,1.0379,1.0387,1.0394,1.038,1.0381,1.041,1.0411,1.0412,1.0424,0,0,0,0,0,0,1.0368,1.037,1.0376,1.0376,1.0377,1.039,1.0379,1.0379,1.0381,1.038,1.0381,1.038,1.0377,1.0386,1.0388,1.0394,1.0381,1.0409,1.041,1.0411,1.0423,1.0425,1.0426,0,0,0,0,0,1.0368,1.0379,1.0376,1.0378,1.0384,1.0391,1.0391,1.0388,1.0382,1.0387,1.0386,1.038,1.0393,1.0387,1.0389,1.0396,1.0409,1.041,1.0411,1.0422,1.0424,1.0426,0,0,0,0,0,0,1.038,1.0379,1.0376,1.0388,1.0389,1.0389,1.0395,1.0391,1.0394,1.0393,1.0388,1.0388,1.0398,1.0398,1.0391,1.0408,1.04,1.0401,1.0407,1.041,1.0412,1.0411,1.0382,0,0,0,0,0,1.0384,1.0389,1.0389,1.0399,1.04,1.0397,1.04,1.0397,1.0399,1.0399,1.0399,1.04,1.0404,1.0407,1.0411,1.0423,1.0422,1.0428,1.043,1.0432,1.0433,1.0438,1.044,1.0415,1.0415,1.0415,0,0,1.0392,1.0392,1.0396,1.0401,1.0402,1.0408,1.0398,1.0405,1.0408,1.04,1.0408,1.0408,1.0409,1.0419,1.0423,1.0419,1.0439,1.0433,1.0434,1.0434,1.0439,1.0441,1.0443,1.0416,1.0416,1.0416,0,0,1.041,1.0411,1.0419,1.042,1.0422,1.042,1.0422,1.0422,1.0421,1.0429,1.0423,1.0427,1.0435,1.0436,1.0437,1.0454,1.0449,1.0456,1.0465,1.047,1.0472,1.0474,1.0479,1.0481,1.0457,1.0457,1.0457,0,1.042,1.0428,1.0424,1.0431,1.0433,1.0425,1.0433,1.0434,1.0437,1.0438,1.0434,1.0442,1.0443,1.0452,1.0456,1.0458,1.046,1.0455,1.0472,1.0474,1.0475,1.048,1.0482,1.0458,1.0457,1.0457,1.0457,0,1.044,1.0445,1.0452,1.0454,1.0457,1.0464,1.0461,1.0464,1.0461,1.0459,1.0467,1.0467,1.047,1.0472,1.0469,1.0481,1.0478,1.0473,1.0465,1.0478,1.0483,1.0485,1.0459,1.0458,1.0458,1.0458,0,0,1.0465,1.0465,1.0467,1.0468,1.0468,1.0472,1.0479,1.0482,1.0484,1.0486,1.0491,1.0497,1.0492,1.0494,1.0491,1.0495,1.0507,1.0489,1.0489,1.0492,1.0519,1.0522,1.0524,1.0504,1.0504,1.0505,1.0518,0,1.0482,1.0493,1.0489,1.05,1.0505,1.0498,1.0503,1.0504,1.0502,1.0506,1.0504,1.0508,1.0502,1.0502,1.0507,1.0505,1.0512,1.0504,1.0507,1.0508,1.0507,1.0527,1.053,1.0543,1.052,1.052,1.0521,0,1.0502,1.0505,1.0516,1.0515,1.0517,1.0522,1.0524,1.0527,1.0528,1.0526,1.0528,1.0523,1.0529,1.0521,1.0528,1.0523,1.0524,1.0523,1.0524,1.0523,1.0514,1.0526,1.0547,1.0549,1.0523,1.0523,1.0523,0,1.0518,1.0524,1.0532,1.0532,1.0532,1.0535,1.0535,1.0535,1.0537,1.0538,1.0539,1.0542,1.0543,1.0545,1.0541,1.0536,1.0548,1.054,1.0546,1.0546,1.0549,1.0548,1.057,1.0551,1.0551,1.0551,1.0551,0,1.0537,1.0544,1.0539,1.0543,1.055,1.0546,1.0553,1.0552,1.0552,1.0556,1.055,1.0553,1.0549,1.0552,1.0549,1.0554,1.0555,1.0554,1.0553,1.0554,1.0554,1.0554,1.0553,1.0551,1.0551,1.0551,1.0551,0,1.0555,1.0553,1.056,1.0558,1.0558,1.0563,1.0562,1.0565,1.0564,1.0568,1.0569,1.0566,1.0569,1.0565,1.0568,1.0566,1.0574,1.0572,1.0573,1.0572,1.0578,1.0577,1.06,1.0602,1.0583,1.0583,1.0583,0,1.0567,1.0572,1.0571,1.0573,1.0573,1.0576,1.0578,1.0574,1.0575,1.0576,1.0579,1.0582,1.0583,1.0588,1.0586,1.0588,1.0585,1.0593,1.0585,1.0586,1.0584,1.0584,1.0584,1.0594,1.0595,1.0595,1.0595,0,1.0587,1.0585,1.0588,1.059,1.0591,1.0593,1.0594,1.0595,1.0591,1.0593,1.0596,1.0597,1.06,1.0602,1.0603,1.0602,1.0598,1.0597,1.0599,1.0599,1.06,1.0599,1.0576,1.0597,1.0596,1.0596,1.0596,1.0596,1.0602,1.0606,1.0605,1.0608,1.0608,1.0609,1.0612,1.061,1.0612,1.0614,1.0611,1.0614,1.0614,1.0615,1.0615,1.0617,1.0613,1.0616,1.0616,1.0616,1.0617,1.06,1.0617,1.0617,1.0617,1.0617,1.0617,0,1.0621,1.062,1.0623,1.0624,1.0626,1.0621,1.0621,1.0623,1.0626,1.0626,1.0628,1.0631,1.0633,1.063,1.0632,1.0634,1.0631,1.0634,1.0634,1.0633,1.062,1.0618,1.0636,1.0636,1.0636,1.0636,1.0636,1.0636,1.0631,1.0637,1.0635,1.064,1.0639,1.0642,1.0643,1.0643,1.0643,1.0646,1.0648,1.0646,1.0645,1.0646,1.0647,1.0647,1.0647,1.065,1.0649,1.0636,1.0634,1.0633,1.0631,1.0651,1.0651,1.0661,1.0661,1.0661]},{"header":{"parameterUnit":"m.s-1","parameterCategory":1,"la1":30.2991,"la2":30.254,"lo1":-89.0895,"lo2":-89.0444,"dy":0.0017,"dx":0.0017,"nx":28,"ny":28,"refTime":"2025-05-28T09:00:00:Z","depth":0,"parameterNumber":3,"parameterNumberName":"V-component_of_WINDS"},"data":[0,0,0,0,0,0,0,0,0,0,0,0,0,0,0,0,0,0,0,0,0,0,0,0,0,0,0,0,0,0,0,0,0,0,0,0,0,0,0,0,0,0,0,0,0,0,0,0,0,0,0,0,0,0,0,0,0,0,5.3393,5.3394,0,5.3462,5.3463,5.3464,5.3403,5.3401,5.3398,5.3396,5.3459,5.3463,5.3467,0,0,0,0,0,0,0,0,0,0,0,0,0,5.32,5.3204,5.3393,5.3394,5.3395,5.3462,5.3463,5.3464,5.3404,5.3401,5.3398,5.3395,5.3458,5.3463,5.3467,0,0,0,0,0,0,0,0,0,0,0,0,0,5.3278,5.3205,5.3393,5.3373,5.3372,5.3462,5.3463,5.3464,5.3404,5.34,5.3397,5.3393,5.3456,5.3462,5.3468,5.3579,0,0,5.3486,5.3489,0,0,0,0,0,0,0,0,5.3274,5.3285,5.3375,5.3375,5.3373,5.3421,5.3418,5.3503,5.3405,5.3392,5.3396,5.3391,5.3449,5.3455,5.3476,5.3582,5.3585,5.3487,5.3491,5.3493,5.3495,0,0,0,0,0,0,0,5.3268,5.3282,5.342,5.3376,5.3375,5.3358,5.3365,5.3434,5.344,5.3393,5.3388,5.3398,5.3448,5.347,5.3477,5.3586,5.3487,5.3492,5.3496,5.3498,5.3787,5.379,0,0,0,0,0,0,5.3266,5.3278,5.3418,5.3422,5.3314,5.3364,5.3372,5.3409,5.3439,5.344,5.3401,5.3395,5.3462,5.347,5.3479,5.3612,5.3493,5.3499,5.3502,5.3782,5.3787,5.3792,0,0,0,0,0,0,5.3262,5.3279,5.3415,5.3349,5.3365,5.3372,5.3414,5.3412,5.3435,5.3446,5.3445,5.3424,5.3459,5.3471,5.3555,5.3613,5.3501,5.3507,5.3778,5.3784,5.379,5.3879,0,0,0,0,0,0,5.3257,5.3278,5.3323,5.3351,5.3369,5.3493,5.3417,5.3416,5.3447,5.3439,5.3467,5.3468,5.3457,5.3547,5.3561,5.362,5.3511,5.3773,5.378,5.3788,5.3871,5.3887,5.3901,0,0,0,0,0,5.325,5.3343,5.3325,5.3343,5.3425,5.3497,5.3507,5.3495,5.3452,5.3495,5.3501,5.3467,5.3604,5.3556,5.3572,5.3633,5.3769,5.3778,5.3787,5.3864,5.3884,5.3901,0,0,0,0,0,0,5.3319,5.3347,5.3327,5.3432,5.3463,5.3486,5.3541,5.3517,5.3558,5.3549,5.353,5.3537,5.3627,5.3637,5.3583,5.3742,5.3679,5.3692,5.3732,5.3751,5.3766,5.3762,5.3516,0,0,0,0,0,5.3347,5.3406,5.3425,5.3516,5.3533,5.3534,5.3565,5.3554,5.3583,5.3595,5.3608,5.3636,5.3686,5.3719,5.3765,5.3871,5.3876,5.3921,5.3936,5.3948,5.396,5.4017,5.4037,5.3822,5.3822,5.3822,0,0,5.3404,5.3426,5.3464,5.353,5.3553,5.3612,5.3546,5.361,5.3654,5.3604,5.3687,5.3696,5.3726,5.3823,5.3866,5.3835,5.402,5.396,5.397,5.3975,5.4029,5.4049,5.4067,5.3828,5.3827,5.3826,0,0,5.3539,5.3562,5.3641,5.3665,5.3701,5.3702,5.3721,5.3748,5.3754,5.3836,5.3801,5.3849,5.3935,5.3959,5.3981,5.4125,5.4095,5.414,5.422,5.4276,5.4293,5.4308,5.436,5.4379,5.4151,5.4152,5.4152,0,5.3605,5.3696,5.3683,5.3752,5.3782,5.3742,5.3821,5.3844,5.3892,5.3912,5.3877,5.3984,5.4001,5.4103,5.4138,5.4158,5.4178,5.4138,5.4292,5.4307,5.4321,5.437,5.439,5.4157,5.4156,5.4156,5.4155,0,5.3775,5.3838,5.3897,5.3948,5.3984,5.4057,5.4053,5.409,5.4075,5.4079,5.4162,5.4182,5.4232,5.4254,5.4239,5.4354,5.4333,5.4296,5.4233,5.4347,5.4393,5.4412,5.4165,5.4163,5.4161,5.416,0,0,5.3957,5.4001,5.4022,5.4045,5.4082,5.4129,5.4199,5.425,5.4282,5.4316,5.4374,5.4447,5.4413,5.4439,5.4425,5.4475,5.4588,5.4431,5.4431,5.446,5.4716,5.4745,5.4767,5.4568,5.4571,5.4574,5.4713,0,5.4094,5.422,5.4211,5.4329,5.4386,5.4349,5.441,5.4438,5.4442,5.449,5.4493,5.4546,5.4496,5.4512,5.4559,5.4564,5.4639,5.4554,5.462,5.4623,5.4616,5.4791,5.4822,5.4953,5.4731,5.4734,5.4736,0,5.4272,5.4316,5.444,5.4469,5.4492,5.4548,5.4594,5.464,5.467,5.4669,5.4699,5.4678,5.4746,5.4681,5.4774,5.4716,5.4742,5.4748,5.4753,5.476,5.4688,5.4803,5.4995,5.5015,5.4764,5.4762,5.476,0,5.4394,5.4482,5.4569,5.4589,5.4624,5.4664,5.468,5.4706,5.4737,5.4776,5.4796,5.4841,5.4866,5.4901,5.4891,5.4845,5.4987,5.492,5.4988,5.4988,5.502,5.5019,5.522,5.5035,5.5035,5.5035,5.5034,0,5.4549,5.4627,5.4624,5.4678,5.4763,5.475,5.4834,5.4844,5.4868,5.492,5.4889,5.4939,5.4922,5.497,5.4962,5.5041,5.5052,5.5053,5.505,5.5057,5.5057,5.5074,5.5065,5.504,5.5039,5.5038,5.5037,0,5.47,5.4701,5.4793,5.4819,5.4827,5.4889,5.491,5.4959,5.4961,5.5028,5.5043,5.5045,5.51,5.5094,5.5154,5.5149,5.5247,5.5232,5.5238,5.5236,5.5304,5.5298,5.5524,5.5553,5.5349,5.5351,5.5352,0,5.48,5.4859,5.4893,5.4928,5.4947,5.5003,5.5035,5.5023,5.5058,5.5097,5.5141,5.5193,5.5235,5.5324,5.5329,5.5375,5.5362,5.5438,5.5369,5.5374,5.5365,5.5362,5.5368,5.5452,5.5455,5.5457,5.5458,0,5.4978,5.4976,5.5026,5.5076,5.5117,5.5155,5.5189,5.5218,5.521,5.525,5.5307,5.534,5.5403,5.5455,5.5498,5.5511,5.5484,5.548,5.5498,5.5506,5.5508,5.5509,5.5277,5.5475,5.5473,5.5472,5.5471,5.547,5.5107,5.5158,5.5191,5.5247,5.5272,5.5305,5.5353,5.5362,5.5411,5.5463,5.5452,5.5517,5.5543,5.5599,5.5617,5.5665,5.5637,5.5663,5.567,5.5677,5.5686,5.5499,5.5673,5.5672,5.5672,5.5671,5.5671,0,5.5284,5.5303,5.5355,5.5406,5.545,5.5422,5.5459,5.5497,5.5555,5.5583,5.5626,5.5691,5.5742,5.5752,5.5799,5.5836,5.5824,5.5849,5.5847,5.585,5.5708,5.5688,5.5858,5.5858,5.5858,5.5858,5.5858,5.5858,5.5381,5.5468,5.5469,5.5567,5.5584,5.565,5.5673,5.5703,5.5726,5.5802,5.5844,5.5851,5.5872,5.5921,5.5965,5.5966,5.5986,5.6016,5.6012,5.5879,5.586,5.5843,5.5824,5.602,5.602,5.6151,5.6152,5.6153]}]]